Location: Newark
(41.6478°N, 9.0078°E)
Time: 03:00:35
(UTC+00:00)

RS-15 - Visible Passes

Search period start: 19 January 2020 00:00
Search period end: 29 January 2020 00:00
Orbit: 1899 x 2145 km, 64.8° (Epoch: 18 January)

Date Brightness Start Highest point End Pass type
(mag) Time Alt. Az. Time Alt. Az. Time Alt. Az.
19 Jan 9.0 01:45:50 33° NE 01:45:50 33° NE 01:50:45 10° NE visible
19 Jan 8.5 03:53:36 34° NNW 03:53:36 34° NNW 04:03:12 10° NNE visible
19 Jan 9.2 06:02:47 10° NW 06:10:30 21° N 06:18:17 10° NE visible
20 Jan 9.3 01:11:09 24° NE 01:11:09 24° NE 01:14:38 10° NE visible
20 Jan 8.5 03:18:54 38° NNW 03:18:54 38° NNW 03:27:04 10° NNE visible
20 Jan 9.1 05:26:39 12° NW 05:33:23 21° N 05:41:15 10° NE visible
21 Jan 9.7 00:36:25 17° NE 00:36:25 17° NE 00:38:24 10° NE visible
21 Jan 8.6 02:44:11 38° N 02:44:11 38° N 02:51:01 10° NNE visible
21 Jan 9.0 04:51:55 18° NW 04:56:18 22° NNW 05:04:27 10° NE visible
22 Jan 9.9 00:01:40 11° NE 00:01:40 11° NE 00:02:03 10° NE visible
22 Jan 8.9 02:09:24 34° NNE 02:09:24 34° NNE 02:14:59 10° NNE visible
22 Jan 8.9 04:17:10 23° NW 04:19:18 25° NNW 04:27:54 10° NNE visible
23 Jan 9.1 01:34:38 29° NNE 01:34:38 29° NNE 01:38:56 10° NNE visible
23 Jan 8.8 03:42:23 28° NNW 03:42:26 28° NNW 03:51:33 10° NNE visible
23 Jan 9.3 05:51:57 10° NW 05:59:53 22° N 06:07:53 10° ENE visible
24 Jan 9.4 00:59:50 22° NE 00:59:50 22° NE 01:02:52 10° NE visible
24 Jan 8.8 03:07:35 32° NNW 03:07:35 32° NNW 03:15:19 10° NNE visible
24 Jan 9.3 05:15:20 11° NW 05:22:47 21° N 05:30:35 10° NE visible
25 Jan 9.7 00:25:01 17° NE 00:25:01 17° NE 00:26:45 10° NE visible
25 Jan 8.9 02:32:45 32° N 02:32:45 32° N 02:39:11 10° NNE visible
25 Jan 9.2 04:40:30 15° NW 04:45:39 21° N 04:53:29 10° NE visible
25 Jan 9.9 23:50:11 11° NE 23:50:11 11° NE 23:50:33 10° NE visible
26 Jan 9.0 01:57:55 30° N 01:57:55 30° N 02:03:08 10° NNE visible
26 Jan 9.1 04:05:40 20° NNW 04:08:34 22° NNW 04:16:40 10° NE visible
27 Jan 9.2 01:23:04 26° NNE 01:23:04 26° NNE 01:27:05 10° NNE visible
27 Jan 9.0 03:30:49 24° NNW 03:31:33 24° NNW 03:40:05 10° NNE visible
27 Jan 9.3 05:40:49 10° NNW 05:49:11 24° NNE 05:57:41 10° ENE visible
28 Jan 9.5 00:48:13 21° NNE 00:48:13 21° NNE 00:51:03 10° NNE visible
28 Jan 9.0 02:55:57 27° NNW 02:55:57 27° NNW 03:03:42 10° NNE visible
28 Jan 9.3 05:04:11 10° NW 05:12:09 22° N 05:20:13 10° ENE visible
